Skip Page Navigation
NASA JPL Caltech
NASA Logo - Jet Propulsion Laboratory + View the NASA Portal
+ Center for Near-Earth Object Studies
JPL Home Earth Solar System Stars & Galaxies Technology
JPL Solar System Dynamics
BODIES ORBITS EPHEMERIDES TOOLS PHYSICAL DATA DISCOVERY FAQ SITE MAP
JPL Small-Body Database Browser
Search: [ help ]  
(2008 UX)
Classification: Aten [NEO]          SPK-ID: 3432642
Ephemeris | Orbit Diagram | Orbital Elements | Mission Design | Physical Parameters | Close-Approach Data ]

[ show orbit diagram ]
Orbital Elements at Epoch 2459200.5 (2020-Dec-17.0) TDB
Reference: JPL 31 (heliocentric ecliptic J2000)
 Element Value Uncertainty (1-sigma)   Units 
e .6812510623077824 1.4976e-07  
a .8174552702397319 5.4446e-09 au
q .2605629989998192 1.2112e-07 au
i 21.73994563759284 1.7713e-05 deg
node 37.55061549077242 1.0454e-05 deg
peri 158.1236592303827 1.3172e-05 deg
M 25.66580701734594 3.4553e-05 deg
tp 2459181.253717872086
(2020-Nov-27.75371787)
2.5806e-05 TDB
period 269.956894843264
0.74
2.6971e-06
7.384e-09
d
yr
n 1.333546232293917 1.3323e-08 deg/d
Q 1.374347541479645 9.1538e-09 au
  Orbit Determination Parameters
   # obs. used (total)      138  
   data-arc span      4027 days (11.03 yr)  
   first obs. used      2008-10-21  
   last obs. used      2019-10-31  
   planetary ephem.      DE431  
   SB-pert. ephem.      SB431-N16  
   condition code      0  
   norm. resid. RMS      .66347  
   source      ORB  
   producer      Otto Matic  
   solution date      2020-Sep-29 06:34:05  

Additional Information
 Earth MOID = .0784765 au 
 Jupiter MOID = 3.59199 au 
 T_jup = 6.904 
[ show covariance matrix ]

Ephemeris | Orbit Diagram | Orbital Elements | Mission Design | Physical Parameters | Close-Approach Data ]

Physical Parameter Table
Parameter Symbol Value Units Sigma Reference Notes
absolute magnitude H 20.8   n/a E2020-SO6  

[ show close-approach data ]
Ephemeris | Orbit Diagram | Orbital Elements | Mission Design | Physical Parameters | Close-Approach Data ]
ABOUT SSD CREDITS/AWARDS PRIVACY/COPYRIGHT GLOSSARY LINKS
FirstGov 2021-Mar-04 20:22 UT
(server date/time)  
NASA Home Page
Site Manager:   Ryan S. Park
Webmaster  Alan B. Chamberlin